Temperature
18 19 19 19 19 18 18 17 17 18 18 18 17 17 18 19 20 20 20 21 21 21 21 20 20 20 19 19 18 18 17 17 16 16 15 15 15 14 14 14 14 13 13 13
18 18 18 18 19 18 18 18 17 18 17 17 17 18 18 18 19 19 20 20 20 20 20 20 20 20 19 19 18 18 18 17 17 16 16 15 15 14 14 14 14 14 13 13
17 17 19 18 18 18 18 18 17 17 17 17 17 17 18 18 19 19 19 20 20 20 20 20 20 20 19 19 19 18 18 17 17 16 16 16 15 15 14 14 14 14 14 14
15 18 19 18 18 18 17 17 16 17 16 16 17 18 18 19 19 19 19 20 20 20 20 20 20 20 19 19 19 18 18 17 17 17 16 16 15 15 14 14 14 14 14 14
14 16 17 17 18 17 17 17 16 16 16 17 18 18 18 19 19 19 19 19 19 19 19 19 19 19 19 19 18 18 18 18 17 17 16 16 16 15 15 14 14 14 14 14
13 17 17 17 17 17 17 16 16 15 15 16 16 15 16 18 18 19 19 19 19 19 19 19 19 19 19 18 18 18 18 18 17 17 16 16 16 15 15 15 14 14 14 14
13 15 15 16 16 17 16 16 16 16 16 16 15 15 17 17 18 18 18 18 18 18 18 18 18 18 18 18 18 18 18 17 17 17 16 16 16 15 15 15 14 14 14 14
12 14 15 15 15 15 15 16 16 16 16 16 16 17 17 17 17 17 17 18 18 18 18 18 18 18 18 18 18 17 17 17 17 17 16 16 16 16 15 15 15 14 14 14
12 13 14 15 15 16 16 16 16 16 16 16 16 16 16 16 16 16 16 17 17 17 17 17 17 17 17 17 17 17 17 17 17 16 16 16 16 15 15 15 14 14 14 14
12 13 14 15 15 15 16 16 16 16 16 16 15 16 16 16 16 16 16 16 16 16 16 16 16 16 16 16 16 16 16 16 16 16 16 16 15 15 15 15 15 14 14 14
11 12 14 15 15 15 15 15 15 15 15 15 15 15 15 15 15 15 15 15 15 15 15 15 15 15 15 15 15 15 15 16 16 16 15 15 15 15 15 15 15 14 14 14
11 13 12 14 14 14 14 14 14 14 14 14 14 14 14 14 14 14 14 14 14 14 14 14 14 14 15 15 15 15 15 15 15 15 15 15 15 15 15 14 14 14 14 14
14 14 14 14 14 14 14 14 14 13 13 13 13 13 13 13 13 13 13 13 13 13 13 13 13 14 14 14 14 14 14 14 14 14 14 14 14 14 14 14 14 13 13 13
13 13 13 13 13 13 13 13 13 13 13 13 13 12 12 12 12 12 12 12 12 12 12 12 13 13 13 13 13 13 13 13 13 13 14 14 14 14 14 13 13 13 13 13
13 12 12 12 13 12 12 12 12 12 12 12 12 12 12 11 11 11 11 11 11 11 12 12 12 12 12 12 12 12 12 13 13 13 13 13 13 13 13 13 13 12 13 12
12 12 12 12 12 12 12 11 11 11 11 11 11 11 11 11 11 11 11 11 11 11 11 11 11 11 11 11 11 11 12 12 12 12 12 12 12 12 12 12 12 12 12 12
10 11 11 11 11 11 11 11 10 10 10 10 10 10 10 10 10 10 10 10 10 10 10 10 10 10 10 10 10 10 11 11 11 11 11 11 11 11 11 11 11 11 11 11
10 10 10 10 10 10 10 10 10 10 10 9 9 9 9 9 9 9 9 9 9 10 10 9 9 9 9 9 10 10 10 10 10 10 11 11 11 11 11 11 11 11 11 11
10 10 10 9 9 9 9 9 9 9 9 9 9 9 9 9 9 9 9 9 9 9 9 9 9 9 9 9 9 9 9 9 9 9 10 10 10 10 10 10 10 10 10 10
9 9 9 9 9 9 8 8 8 8 8 8 8 8 8 8 8 8 8 8 8 8 8 8 8 8 8 8 8 8 8 8 8 9 9 9 9 9 9 10 10 10 10 10
8 8 8 8 8 8 8 8 8 8 8 8 8 8 8 8 8 8 7 7 8 8 7 7 7 7 8 8 8 8 8 8 8 8 8 8 8 9 9 9 9 9 9 9
7 7 7 7 7 7 7 7 7 7 7 7 7 7 7 7 7 7 7 7 7 7 7 7 7 7 7 7 7 7 7 7 7 7 7 8 8 8 8 8 9 9 9 9
7 7 7 7 7 7 7 7 7 7 7 7 7 7 7 7 6 6 6 6 6 6 6 6 6 7 7 7 7 7 7 7 7 7 7 7 7 8 8 8 8 8 8 9
6 6 6 6 6 6 6 6 6 6 6 6 6 6 6 6 6 6 6 6 6 6 6 6 6 6 6 6 6 6 6 6 6 7 7 7 7 7 7 7 8 8 8 8
6 6 6 6 6 6 6 6 6 6 6 6 6 6 6 6 6 6 6 6 6 5 5 6 6 6 6 6 6 6 6 6 6 6 6 6 6 7 7 7 7 7 7 7
6 6 6 6 5 5 5 5 5 5 5 5 5 6 5 5 5 5 5 5 5 5 5 5 5 5 5 5 6 6 6 6 6 6 6 6 6 6 6 6 6 7 7 7
5 5 5 5 5 5 5 5 5 5 5 5 5 5 5 5 5 5 5 5 5 5 5 5 5 5 5 5 5 5 5 5 5 5 5 5 6 5 6 6 6 6 6 6
Wind_Speed
3 2 1 1 2 3 4 6 6 6 5 7 8 6 6 5 4 4 5 4 3 4 4 4 5 5 6 7 6 7 7 7 8 7 6 5 4 4 3 3 3 3 2 2
2 2 0 1 3 1 2 2 3 2 4 6 5 3 4 5 4 5 5 5 4 4 3 4 5 6 6 7 7 7 8 9 7 6 5 5 5 5 4 3 3 2 2 2
2 5 3 3 3 1 1 0 3 2 5 5 4 5 4 4 4 4 5 5 4 4 4 5 5 6 7 7 6 7 8 7 7 6 6 6 6 5 5 4 3 3 3 3
1 3 1 4 2 2 4 2 2 2 4 4 3 2 2 4 4 5 6 6 6 5 5 4 3 3 4 3 5 7 7 7 7 7 7 6 5 6 6 4 4 4 4 4
3 1 4 4 2 1 2 2 3 3 5 5 4 3 5 6 5 4 5 4 4 4 4 3 3 2 2 3 4 5 7 8 8 8 7 7 7 7 6 5 5 4 3 4
4 3 4 5 5 4 3 1 4 3 4 5 5 4 5 8 7 6 6 5 5 4 3 3 3 0 3 3 4 6 8 8 7 8 8 9 9 7 5 5 6 5 4 5
4 3 5 5 6 2 3 4 4 2 2 2 1 3 6 8 6 6 6 6 5 4 4 4 3 0 2 3 6 7 6 5 5 7 8 8 7 5 5 5 5 5 5 4
4 3 5 4 3 3 4 2 1 1 2 1 3 4 5 6 7 8 8 7 6 5 6 5 2 1 2 5 6 4 3 4 5 6 6 6 6 6 5 6 6 6 5 4
6 5 3 1 0 1 2 1 2 2 3 2 3 5 5 5 6 6 7 7 6 5 6 6 3 2 5 6 4 2 3 4 5 5 5 4 6 6 5 5 6 6 5 5
1 3 3 2 2 1 1 1 2 2 2 2 2 4 5 5 6 6 6 6 6 6 6 7 6 5 6 5 3 3 4 4 4 4 4 4 4 5 6 6 6 6 6 7
3 5 4 3 3 3 3 2 3 3 3 3 3 5 5 5 6 6 6 6 5 5 6 8 7 7 6 4 3 4 4 4 4 4 5 5 5 5 6 7 8 8 7 7
5 5 4 5 5 3 2 3 3 3 4 5 4 5 5 6 6 6 6 6 6 6 7 8 8 8 7 4 4 4 5 5 4 4 4 4 4 3 4 5 8 10 10 8
5 4 4 4 4 3 3 4 4 3 4 5 5 5 5 5 5 5 6 6 7 8 8 8 8 8 7 5 4 5 6 6 5 4 5 5 5 5 4 3 3 6 9 10
4 2 2 3 4 4 3 3 3 3 4 4 5 5 5 5 5 6 7 7 7 8 8 8 8 9 8 6 5 6 6 7 6 5 6 6 7 7 6 5 4 3 5 8
3 3 4 4 3 3 3 2 3 4 5 6 5 5 6 6 7 8 8 7 7 7 8 8 9 10 8 7 6 7 6 5 6 5 6 6 6 6 6 7 6 4 2 4
4 3 2 2 3 4 3 3 3 5 5 6 6 7 7 7 7 8 7 6 6 8 9 9 10 10 9 7 7 6 6 9 7 5 5 6 6 6 6 7 6 6 6 5
2 3 4 5 5 5 5 5 5 6 6 6 7 8 8 7 8 8 8 7 7 8 8 8 10 10 9 8 7 6 6 7 8 6 5 6 6 7 7 7 7 7 7 7
3 4 4 5 5 6 6 6 6 6 7 7 8 7 7 8 9 10 10 9 8 9 9 8 9 9 9 8 7 6 6 6 6 6 6 6 6 7 7 8 8 8 5 6
3 3 4 4 4 4 5 6 7 7 7 7 7 8 9 9 9 10 9 8 9 10 10 9 13 10 9 10 10 6 6 6 6 6 6 7 7 6 6 7 8 8 7 7
4 4 5 5 5 4 6 7 7 7 7 6 7 8 9 10 10 10 9 9 9 9 10 11 11 9 9 9 10 6 6 7 7 6 6 6 6 7 7 7 7 8 8 8
5 6 6 7 7 7 7 7 7 8 8 7 7 9 10 10 10 9 8 10 10 10 10 14 10 9 8 9 10 6 6 7 7 7 7 7 7 7 7 7 7 8 8 8
5 6 7 8 8 9 8 7 7 8 9 9 9 9 9 10 10 10 9 9 11 14 10 8 8 11 12 12 6 6 7 7 6 6 6 6 7 7 7 7 8 8 8 8
7 7 8 8 9 9 9 9 8 8 9 10 10 10 10 9 8 8 10 9 9 15 11 9 13 18 17 9 6 6 7 7 7 7 6 7 7 7 7 7 7 7 7 7
8 9 9 9 8 8 10 10 9 8 9 10 10 10 10 9 9 8 9 14 16 17 10 12 18 18 16 7 6 7 7 7 7 6 6 6 6 6 6 6 6 6 6 7
9 9 9 9 8 9 10 10 9 9 9 8 10 11 9 7 8 9 9 10 15 15 10 13 18 17 10 7 7 7 6 7 7 6 6 5 5 5 5 5 5 5 5 6
9 9 9 9 9 8 8 7 8 8 8 8 9 9 8 7 8 8 8 9 11 14 10 9 9 11 7 6 6 6 6 6 7 6 5 5 5 4 4 4 5 5 5 5
9 8 7 7 8 8 7 7 8 9 8 9 9 9 8 8 8 8 9 9 9 9 8 8 7 7 6 6 5 5 5 5 5 5 5 4 4 4 4 5 4 4 4 5
Wind_Direction
235 263 226 250 264 176 176 183 187 230 239 282 301 303 311 326 348 360 346 329 293 264 248 232 227 223 214 213 204 195 192 203 215 217 214 213 219 222 220 217 223 227 229 261
355 7 321 306 309 253 209 189 212 258 283 290 303 343 1 358 360 352 337 327 319 301 274 249 233 226 219 216 205 189 198 212 215 209 208 212 217 215 213 219 223 213 222 240
302 316 19 340 313 204 133 150 173 212 268 314 348 358 357 349 347 327 321 324 320 301 277 260 244 222 218 218 199 192 205 213 208 204 209 216 214 207 212 217 214 216 227 229
95 38 228 238 304 138 122 60 12 306 303 313 299 301 3 5 342 325 329 330 324 315 301 284 264 234 218 192 190 201 210 215 210 204 212 213 207 213 216 211 210 216 224 225
119 162 288 304 337 98 148 26 349 333 330 336 338 16 1 2 347 314 308 304 302 297 288 296 297 237 171 177 187 202 217 220 215 207 209 208 212 219 215 205 210 212 215 217
125 154 228 262 297 298 130 356 330 353 347 353 38 28 313 329 336 332 329 328 330 333 338 332 318 226 164 193 199 221 228 226 217 205 205 211 217 217 210 204 211 209 216 217
151 199 258 281 300 46 121 257 303 334 348 21 86 237 281 318 333 339 340 337 343 351 343 319 321 175 206 220 231 238 235 224 213 209 211 214 212 209 203 201 202 206 215 223
145 176 251 312 58 122 215 256 287 315 333 331 296 309 326 339 343 348 350 348 349 346 333 330 333 254 248 254 257 251 226 219 218 216 217 213 203 204 197 194 199 209 215 229
184 203 226 328 207 264 199 242 294 309 319 330 332 329 331 335 338 339 339 336 334 329 326 328 323 285 260 268 274 252 232 230 227 216 212 201 197 201 198 195 202 212 211 223
254 258 264 294 301 327 321 284 300 305 315 337 320 317 324 326 328 329 330 329 328 327 323 318 313 300 275 281 262 233 240 243 232 215 215 209 204 201 202 205 209 213 214 220
277 285 310 322 317 310 319 331 334 335 323 313 311 309 307 310 312 314 316 318 322 317 311 308 310 302 297 294 263 244 245 244 235 223 216 215 214 214 213 217 212 212 219 213
232 243 225 268 289 295 292 298 298 311 321 318 306 297 302 299 300 305 310 314 319 316 311 309 308 305 300 291 265 248 253 248 237 227 221 215 214 242 246 233 230 220 215 210
235 254 228 262 289 294 279 283 288 287 285 298 303 297 297 293 295 302 307 309 309 306 304 305 305 303 303 289 272 255 249 247 240 231 223 217 213 214 234 270 252 229 220 215
253 250 279 276 277 289 286 289 295 308 310 304 301 300 295 292 298 303 301 299 301 304 305 303 301 300 300 293 277 270 262 251 242 233 227 222 218 219 216 215 228 252 237 218
291 247 241 271 293 305 313 323 331 323 321 321 316 311 305 299 296 295 297 302 307 308 308 307 304 301 302 294 281 274 270 262 249 239 231 227 222 218 218 217 219 224 233 224
301 311 290 288 291 301 312 310 301 298 303 306 310 309 304 295 291 296 301 304 307 303 302 303 299 300 302 294 284 279 273 272 264 246 233 228 222 219 219 217 216 215 216 213
305 312 310 303 295 293 287 280 275 280 289 294 296 299 303 306 304 303 301 298 290 288 290 291 293 298 301 295 283 278 276 274 270 259 237 227 222 222 221 217 216 218 221 211
241 252 260 262 272 282 290 292 289 289 286 286 293 299 300 298 293 292 294 298 299 298 292 287 290 298 299 297 290 278 272 268 263 255 245 233 226 223 221 220 218 216 219 212
338 317 305 292 285 283 284 287 287 287 288 292 295 294 290 288 285 285 289 292 293 294 294 292 299 300 294 294 295 279 272 268 265 261 251 239 232 227 225 223 220 214 208 204
328 318 311 306 301 291 286 285 286 289 290 291 291 293 295 293 291 289 287 281 273 271 281 291 293 288 286 287 289 277 269 264 261 260 252 240 233 231 228 226 222 214 208 207
311 310 309 304 301 297 291 287 287 288 291 290 285 285 286 289 291 289 286 287 284 280 285 292 292 285 282 284 284 271 264 262 259 255 250 245 239 235 231 228 223 216 210 207
295 294 294 296 297 296 292 287 283 284 288 289 287 287 289 292 294 292 279 273 281 289 290 284 283 285 289 287 271 263 261 260 259 256 251 246 239 235 232 228 223 218 213 208
279 278 280 281 281 284 290 288 282 282 283 284 285 284 281 280 282 285 291 287 286 291 293 284 289 293 294 286 267 259 260 259 257 255 251 246 240 235 232 229 225 217 211 208
274 274 274 276 279 281 283 283 282 281 280 282 279 275 275 282 284 275 271 288 297 295 290 287 291 294 294 280 266 259 257 257 255 255 252 247 241 235 229 225 222 215 208 202
273 274 276 278 277 273 270 274 279 278 278 280 279 277 273 265 269 282 286 288 294 298 293 295 298 297 292 275 265 259 255 254 254 252 247 244 239 233 226 221 217 209 202 197
270 272 271 266 265 270 272 272 273 276 277 279 282 282 282 280 277 280 283 285 287 292 292 290 292 293 284 276 272 268 261 262 264 257 245 240 233 225 219 213 208 204 197 188
270 271 272 274 273 265 264 264 268 274 274 272 277 280 282 285 287 287 286 286 286 286 287 288 287 285 280 276 275 274 268 259 251 244 241 237 231 222 212 202 199 193 183 174
Height
1498 1495 1496 1496 1496 1497 1501 1505 1511 1505 1502 1495 1489 1487 1484 1482 1481 1480 1480 1480 1480 1480 1481 1482 1483 1484 1485 1487 1489 1490 1491 1492 1493 1494 1495 1495 1496 1496 1497 1497 1497 1496 1496 1495
1499 1496 1496 1498 1496 1496 1497 1499 1501 1500 1499 1491 1488 1486 1484 1483 1482 1481 1480 1480 1479 1479 1480 1480 1481 1482 1483 1484 1485 1487 1488 1489 1490 1491 1492 1492 1493 1494 1494 1494 1495 1495 1494 1494
1508 1502 1497 1505 1497 1496 1496 1496 1497 1500 1497 1490 1488 1486 1485 1484 1483 1482 1481 1480 1479 1479 1478 1478 1479 1479 1480 1481 1483 1484 1485 1486 1487 1488 1489 1489 1490 1491 1491 1492 1492 1492 1492 1492
1511 1506 1511 1503 1492 1492 1495 1496 1495 1494 1492 1490 1488 1486 1485 1484 1483 1482 1481 1480 1479 1478 1477 1477 1477 1478 1478 1479 1480 1480 1481 1482 1483 1484 1485 1486 1487 1487 1488 1489 1489 1489 1489 1489
1516 1514 1509 1499 1493 1493 1495 1497 1495 1494 1491 1489 1487 1486 1485 1485 1484 1483 1482 1481 1480 1478 1477 1476 1476 1476 1476 1476 1477 1477 1478 1479 1480 1481 1482 1483 1483 1484 1485 1485 1486 1486 1486 1487
1515 1512 1514 1502 1492 1489 1493 1500 1494 1493 1491 1490 1488 1492 1490 1486 1484 1482 1481 1480 1478 1477 1476 1475 1474 1474 1473 1473 1474 1474 1474 1475 1476 1477 1478 1478 1479 1480 1481 1482 1482 1483 1483 1483
1514 1513 1508 1496 1491 1490 1504 1504 1494 1493 1492 1491 1490 1492 1489 1486 1484 1482 1481 1479 1477 1476 1475 1473 1472 1472 1471 1471 1471 1471 1471 1472 1472 1473 1474 1474 1475 1476 1477 1478 1478 1479 1479 1480
1514 1514 1510 1495 1493 1497 1499 1494 1493 1492 1491 1490 1490 1489 1487 1485 1483 1481 1479 1478 1476 1474 1473 1472 1470 1469 1468 1468 1468 1468 1468 1468 1468 1469 1469 1470 1471 1471 1472 1473 1473 1474 1475 1475
1504 1504 1497 1494 1494 1494 1494 1493 1492 1492 1491 1490 1489 1487 1486 1484 1482 1480 1479 1476 1474 1472 1471 1469 1468 1467 1465 1465 1464 1464 1464 1464 1464 1464 1464 1465 1465 1466 1467 1467 1468 1469 1469 1470
1499 1495 1494 1493 1493 1492 1492 1492 1491 1491 1490 1489 1487 1486 1484 1483 1481 1478 1476 1474 1472 1470 1468 1466 1465 1463 1462 1461 1460 1460 1459 1459 1459 1459 1459 1460 1460 1461 1461 1461 1462 1463 1464 1464
1498 1494 1492 1491 1491 1491 1491 1490 1489 1489 1488 1487 1485 1484 1482 1480 1478 1476 1474 1472 1469 1467 1465 1463 1461 1460 1458 1457 1456 1455 1454 1453 1453 1453 1454 1454 1454 1455 1455 1456 1457 1457 1458 1459
1496 1492 1492 1491 1490 1489 1489 1488 1487 1486 1485 1484 1483 1481 1480 1478 1476 1473 1471 1469 1466 1464 1461 1459 1457 1455 1454 1452 1451 1450 1448 1447 1447 1447 1448 1448 1448 1449 1449 1450 1451 1451 1452 1453
1489 1489 1489 1488 1488 1487 1486 1485 1485 1484 1483 1481 1480 1478 1476 1474 1472 1470 1468 1465 1463 1460 1457 1455 1453 1450 1448 1447 1446 1444 1443 1442 1441 1441 1441 1441 1441 1442 1442 1443 1444 1445 1445 1446
1487 1486 1486 1485 1485 1484 1484 1483 1482 1481 1480 1478 1476 1474 1473 1470 1468 1466 1464 1461 1459 1456 1453 1451 1448 1446 1444 1442 1440 1439 1437 1436 1435 1435 1434 1434 1435 1435 1436 1436 1436 1437 1438 1440
1484 1484 1483 1483 1482 1482 1481 1480 1478 1477 1476 1474 1473 1471 1469 1467 1464 1462 1460 1457 1455 1452 1449 1446 1443 1441 1439 1436 1434 1432 1431 1430 1429 1428 1428 1428 1428 1428 1428 1429 1430 1430 1432 1433
1481 1481 1480 1479 1479 1478 1477 1476 1475 1473 1472 1470 1468 1467 1465 1463 1460 1458 1455 1453 1450 1447 1444 1441 1438 1436 1433 1431 1428 1426 1424 1423 1422 1421 1420 1420 1420 1420 1421 1421 1422 1423 1424 1425
1478 1477 1477 1476 1475 1474 1474 1473 1471 1470 1468 1466 1464 1463 1460 1458 1455 1453 1450 1448 1445 1442 1440 1436 1433 1431 1428 1425 1423 1420 1418 1416 1415 1414 1413 1413 1412 1412 1413 1414 1414 1415 1417 1419
1476 1476 1475 1474 1473 1471 1470 1469 1468 1466 1464 1462 1460 1458 1455 1453 1450 1447 1445 1442 1439 1436 1433 1431 1427 1424 1422 1419 1416 1413 1412 1410 1408 1407 1406 1405 1405 1405 1406 1406 1407 1408 1410 1412
1474 1473 1472 1471 1469 1468 1466 1465 1463 1461 1460 1458 1455 1453 1450 1448 1445 1442 1439 1436 1432 1429 1426 1424 1421 1418 1415 1412 1410 1407 1405 1403 1401 1400 1399 1398 1398 1398 1398 1399 1400 1401 1403 1404
1471 1470 1469 1467 1466 1464 1462 1461 1459 1457 1455 1452 1450 1447 1445 1442 1439 1436 1433 1429 1426 1423 1420 1417 1414 1411 1408 1406 1403 1401 1398 1396 1395 1393 1392 1391 1391 1391 1391 1392 1392 1394 1395 1396
1468 1467 1465 1463 1462 1460 1458 1456 1454 1451 1449 1447 1445 1442 1439 1436 1433 1430 1426 1422 1419 1417 1413 1410 1407 1404 1401 1399 1396 1394 1392 1390 1388 1386 1385 1384 1384 1383 1384 1384 1385 1386 1387 1389
1464 1463 1461 1459 1457 1455 1453 1451 1449 1446 1444 1442 1439 1437 1433 1430 1427 1423 1420 1417 1413 1410 1407 1403 1400 1397 1394 1392 1389 1387 1385 1383 1381 1380 1378 1377 1377 1376 1376 1377 1377 1378 1380 1381
1460 1458 1456 1454 1452 1450 1447 1445 1443 1441 1438 1436 1433 1431 1427 1424 1421 1417 1412 1409 1406 1403 1400 1396 1393 1390 1388 1385 1382 1380 1378 1376 1375 1373 1372 1371 1370 1370 1370 1370 1371 1371 1373 1375
1455 1453 1451 1449 1447 1444 1441 1439 1437 1434 1432 1430 1427 1424 1421 1417 1414 1411 1407 1403 1399 1395 1392 1389 1386 1383 1380 1377 1375 1373 1371 1369 1368 1366 1365 1364 1364 1363 1364 1364 1364 1365 1366 1368
1448 1446 1444 1442 1439 1437 1434 1432 1429 1427 1424 1422 1420 1417 1414 1411 1407 1403 1400 1396 1392 1389 1385 1382 1379 1376 1373 1370 1368 1366 1364 1363 1361 1360 1359 1358 1357 1357 1358 1358 1359 1360 1361 1362
1441 1439 1437 1435 1433 1430 1428 1425 1422 1420 1417 1414 1411 1409 1407 1404 1400 1396 1393 1389 1385 1382 1379 1375 1372 1369 1366 1363 1361 1359 1358 1357 1355 1354 1353 1353 1352 1352 1353 1353 1354 1355 1356 1358
1434 1432 1430 1427 1425 1424 1421 1418 1416 1413 1410 1407 1404 1402 1399 1396 1393 1389 1386 1382 1379 1375 1372 1369 1366 1363 1360 1358 1356 1354 1352 1351 1350 1349 1349 1348 1348 1348 1348 1349 1350 1351 1352 1353